User: anonymous   Login
Location: Unspecified
(0.0000°N, 0.0000°E)
Time: 11:17:47
(UTC+00:00)
Language:

EO-79 - Orbit

View from above orbital plane
View from above orbital plane
View from above satellite
View from above satellite

Ground track
Ground track

The orbit data is extracted from the following two-line orbital elements,

1 40025U 14033R   19349.05998286  .00000252  00000-0  32745-4 0  9999
2 40025  97.9099 268.4593 0012163 183.0902 177.0242 14.89037313298011
Epoch (UTC): 15 December 2019 01:26:22
Eccentricity: 0.0012163
inclination: 97.9099°
perigee height: 592 km
apogee height: 609 km
right ascension of ascending node: 268.4593°
argument of perigee: 183.0902°
revolutions per day: 14.89037313
mean anomaly at epoch: 177.0242°
orbit number at epoch: 29801

The dashed part of the orbit path shows where the satellite is in the earth's shadow,  

DLR